TimeCST,TemperatureF,Dew PointF,Humidity,Sea Level PressureIn,VisibilityMPH,Wind Direction,Wind SpeedMPH,Gust SpeedMPH,PrecipitationIn,Events,Conditions,WindDirDegrees,DateUTC
12:15 AM,9.3,7.7,93,30.11,10.0,Calm,Calm,-,N/A,,Clear,0,2013-01-16 06:15:00
12:55 AM,7.9,6.1,92,30.10,10.0,South,5.8,-,N/A,,Clear,190,2013-01-16 06:55:00
1:35 AM,7.7,5.9,92,30.08,10.0,South,6.9,-,N/A,,Clear,170,2013-01-16 07:35:00
1:55 AM,8.6,6.8,92,30.08,10.0,South,6.9,-,N/A,,Clear,180,2013-01-16 07:55:00
2:15 AM,8.1,5.9,91,30.08,10.0,SSW,5.8,-,N/A,,Clear,200,2013-01-16 08:15:00
2:35 AM,8.1,5.9,91,30.08,10.0,SSW,5.8,-,N/A,,Clear,200,2013-01-16 08:35:00
2:55 AM,8.2,6.3,92,30.06,10.0,South,9.2,-,N/A,,Clear,190,2013-01-16 08:55:00
3:15 AM,9.3,7.3,92,30.06,10.0,South,9.2,-,N/A,,Clear,190,2013-01-16 09:15:00
8:55 AM,18.7,12.9,78,29.94,10.0,SSW,10.4,-,N/A,,Clear,210,2013-01-16 14:55:00
9:15 AM,20.5,14.5,78,29.93,10.0,SSW,9.2,-,N/A,,Clear,200,2013-01-16 15:15:00
9:35 AM,24.6,16.7,72,29.92,10.0,SSW,11.5,-,N/A,,Clear,210,2013-01-16 15:35:00
9:55 AM,26.4,17.1,68,29.92,10.0,SW,18.4,25.3,N/A,,Clear,220,2013-01-16 15:55:00
10:15 AM,27.1,19.0,72,29.92,10.0,SSW,11.5,-,N/A,,Clear,210,2013-01-16 16:15:00
10:35 AM,28.0,19.4,70,29.90,10.0,SW,15.0,20.7,N/A,,Clear,220,2013-01-16 16:35:00
10:55 AM,29.1,20.3,70,29.89,10.0,SW,18.4,24.2,N/A,,Clear,230,2013-01-16 16:55:00
11:15 AM,30.2,21.0,69,29.87,10.0,SW,21.9,25.3,N/A,,Clear,220,2013-01-16 17:15:00
11:35 AM,30.2,21.0,69,29.86,10.0,SW,20.7,-,N/A,,Clear,220,2013-01-16 17:35:00
11:55 AM,31.6,21.9,67,29.85,10.0,SW,18.4,-,N/A,,Clear,220,2013-01-16 17:55:00
12:15 PM,32.2,21.9,66,29.85,10.0,SW,21.9,28.8,N/A,,Scattered Clouds,230,2013-01-16 18:15:00
12:35 PM,32.0,21.9,66,29.83,10.0,SW,25.3,-,N/A,,Mostly Cloudy,230,2013-01-16 18:35:00
12:55 PM,32.9,22.8,66,29.83,10.0,WSW,26.5,32.2,N/A,,Mostly Cloudy,240,2013-01-16 18:55:00
1:15 PM,32.0,22.8,69,29.84,10.0,WSW,20.7,27.6,N/A,,Overcast,240,2013-01-16 19:15:00
1:55 PM,31.1,24.1,75,29.85,10.0,SW,18.4,-,N/A,,Overcast,230,2013-01-16 19:55:00
2:15 PM,31.1,24.6,77,29.85,10.0,SW,18.4,-,N/A,,Overcast,230,2013-01-16 20:15:00
2:55 PM,32.0,25.7,78,29.86,10.0,SW,16.1,-,N/A,,Overcast,230,2013-01-16 20:55:00
3:15 PM,32.0,26.1,79,29.86,10.0,SW,16.1,20.7,N/A,,Overcast,230,2013-01-16 21:15:00
3:35 PM,32.0,25.9,78,29.88,10.0,SW,13.8,-,N/A,,Overcast,230,2013-01-16 21:35:00
3:55 PM,32.0,26.4,80,29.89,10.0,SW,15.0,19.6,N/A,,Overcast,230,2013-01-16 21:55:00
4:15 PM,32.0,26.1,79,29.90,10.0,WSW,11.5,-,N/A,,Overcast,240,2013-01-16 22:15:00
4:35 PM,31.8,26.6,81,29.92,10.0,WSW,11.5,-,N/A,,Overcast,250,2013-01-16 22:35:00
4:55 PM,30.7,26.2,83,29.93,10.0,WSW,9.2,-,N/A,,Mostly Cloudy,250,2013-01-16 22:55:00
5:15 PM,31.5,26.4,82,29.94,10.0,West,8.1,-,N/A,,Mostly Cloudy,260,2013-01-16 23:15:00
5:35 PM,30.9,26.2,83,29.94,10.0,WSW,6.9,-,N/A,,Overcast,250,2013-01-16 23:35:00
5:55 PM,28.4,25.2,88,29.94,10.0,SW,4.6,-,N/A,,Scattered Clouds,230,2013-01-16 23:55:00
6:15 PM,26.6,24.4,92,29.95,10.0,WSW,5.8,-,N/A,,Scattered Clouds,240,2013-01-17 00:15:00
6:35 PM,26.6,23.9,90,29.96,10.0,WSW,5.8,-,N/A,,Clear,240,2013-01-17 00:35:00
6:55 PM,27.5,24.8,90,29.98,10.0,WSW,5.8,-,N/A,,Mostly Cloudy,240,2013-01-17 00:55:00
7:15 PM,28.2,25.5,90,29.98,10.0,WSW,6.9,-,N/A,,Overcast,250,2013-01-17 01:15:00
7:35 PM,30.2,27.1,88,29.99,10.0,WSW,6.9,-,N/A,,Overcast,240,2013-01-17 01:35:00
7:55 PM,30.7,27.3,87,29.99,10.0,WSW,10.4,-,N/A,,Overcast,250,2013-01-17 01:55:00
8:15 PM,30.9,27.7,88,30.00,10.0,WSW,6.9,-,N/A,,Overcast,240,2013-01-17 02:15:00
8:55 PM,31.1,28.4,90,30.01,10.0,WSW,6.9,-,N/A,,Overcast,250,2013-01-17 02:55:00
9:15 PM,31.6,28.8,89,30.02,10.0,West,8.1,-,N/A,,Overcast,260,2013-01-17 03:15:00
9:35 PM,32.0,29.1,89,30.02,10.0,West,5.8,-,N/A,,Overcast,260,2013-01-17 03:35:00
9:55 PM,32.0,29.1,89,30.01,10.0,West,4.6,-,N/A,,Overcast,260,2013-01-17 03:55:00
10:15 PM,32.0,29.3,90,30.01,10.0,WSW,8.1,-,N/A,,Overcast,250,2013-01-17 04:15:00
10:35 PM,30.7,28.2,90,30.01,10.0,West,6.9,-,N/A,,Scattered Clouds,260,2013-01-17 04:35:00
10:55 PM,29.3,27.3,92,30.02,10.0,WNW,4.6,-,N/A,,Clear,290,2013-01-17 04:55:00
11:15 PM,28.4,27.1,95,30.04,7.0,West,5.8,-,N/A,,Scattered Clouds,280,2013-01-17 05:15:00
11:35 PM,27.3,26.4,96,30.05,7.0,West,5.8,-,N/A,,Scattered Clouds,270,2013-01-17 05:35:00
11:55 PM,25.3,24.6,97,30.07,5.0,West,3.5,-,N/A,,Scattered Clouds,270,2013-01-17 05:55:00